Location: Saluda
(35.2377°N, 82.3468°W)
Time: 17:34:42
(UTC+00:00)

Transit 2A - Pass Details

Date: 05 October 2022
Orbit: 598 x 959 km, 66.7° (Epoch: 06 December)

Event Time Altitude Azimuth Distance (km) Brightness Sun altitude
Rises 02:41:22 0° 179° (S) 2,982 - -42.7°
Reaches altitude 10° 02:44:00 10° 167° (SSE) 2,026 - -43.2°
Maximum altitude 02:47:45 26° 110° (ESE) 1,214 - -43.8°
Drops below altitude 10° 02:51:23 10° 53° (NE) 1,949 - -44.5°
Sets 02:53:52 0° 41° (NE) 2,844 - -44.9°
